星链-5543 (STARLINK-5543 )

导读 | 豆包AI

STARLINK-5543是美国太空探索技术公司SpaceX星链星座的第五代卫星,于2023年4月27日发射入轨,旨在为全球提供高速低延迟卫星互联网服务。作为星链组网的组成单元,该卫星依托近地轨道优势,降低通信延迟,服务覆盖偏远地区、移动载体等场景,是美国商业航天星座部署的典型成果。

Basic Information
目录编号:
56341
目录名称:
STARLINK-5543
国际标识:
2023-058AA
轨道中心:
EARTH
卫星名称:
星链-5543
卫星全名:
星链-5543 (STARLINK-5543 )
卫星状态:
在轨 (已飞行1053 天)
发射日期:
2023-04-27 UTC
国别 :
美国 (US)
星等 :
--
Orbit Information
数据来源 国际轨道数据 AOE轨道数据
星历时间 2026-03-15T20:15:51+0800
8小时前
查看轨道信息
2026-03-12T16:00:00+0800
3天前
查看轨道信息
半长轴 6941.164km 6941.157km
偏心率 0.000107 0.0000747
轨道倾角 97.603° 97.604°
近地点辐角 161.726° 181.922°
升交点赤经 75.897° 72.787°
平近点角 198.400° 295.112°
近地点 562.284km 562.501km
远地点 563.77km 563.539km
周期 95.920分钟 95.920分钟
每日圈数 15.012547 15.01257
Detailed Information
固有亮度:
5
最大亮度:
2.5
卫星平台:
Starlink v1.5
覆盖范围:
全球
运营商:
太空探索技术公司
运营商所在国:
美国
制造商(研发单位):
太空探索技术公司
制造商所在国:
美国
使用方式:
暂无
Satellite Introduction
星链(Starlink)计划是由太空探索技术公司(SpaceX)提出的一个巨型低轨卫星互联网星座项目,计划在2019年至2024年间在太空搭建由约1.2万颗卫星组成的“星链”网络,其中1584颗将部署在地球上空550千米处的近地轨道,并从2020年开始工作。该卫星仍在工作。
2D Orbit Map
3D Orbit Map
Orbit Altitude Analysis Chart
Orbit Inclination Analysis Chart
Orbit Comprehensive Analysis Chart
View Comprehensive Chart